contact:dominique.lefevre@mio.osupytheas.fr, maurice.libes@osupytheas.fr, didier.mallarino@osupytheas.fr
Project:EMSO http://www.emso-fr.org/EMSO-France
Depth: 2436.0 m
Title:EMSO Ligure Ouest : Data MII capteur AQUADOPP
Date,Latitude,Longitude,X_East,Y_North,Z_Up,Amplitude_X,Amplitude_Y,Amplitude_Z,Batterie,SoundSpeed,Heading,Pitch,Roll,Pressure,TIS,Speed,Direction
, degrees North, degrees East, m.s-1, m.s-1,m.s-1, 1, 1, 1, Volt, m.s-1, degree, degree, degree, dbar, degree_C, m.s-1, degree
2023-07-04T00:04:03,42.805,6.029,0.052,-0.057,-0.029,103.0,103.0,101.0,13.4,1505.2,342.7,-0.8,1.8,2471.491,13.28,0.077,137.6
2023-07-04T00:07:03,42.805,6.029,0.051,-0.026,-0.032,103.0,103.0,102.0,13.3,1505.2,328.8,-0.7,1.8,2471.473,13.28,0.057,117.0
2023-07-04T00:10:03,42.805,6.029,0.046,-0.01,-0.013,103.0,104.0,102.0,13.3,1505.2,336.2,-0.7,1.8,2471.496,13.28,0.047,102.3
2023-07-04T00:13:03,42.805,6.029,0.029,-0.044,-0.028,104.0,103.0,102.0,13.3,1505.2,342.7,-0.8,1.8,2471.468,13.28,0.052,146.6
2023-07-04T00:16:03,42.805,6.029,0.057,-0.041,-0.028,103.0,103.0,102.0,13.4,1505.2,334.4,-0.8,1.8,2471.445,13.29,0.07,125.7
2023-07-04T00:19:03,42.805,6.029,0.027,-0.032,0.007,104.0,103.0,102.0,13.4,1505.2,353.0,-0.8,1.8,2471.448,13.29,0.041,139.8
2023-07-04T00:22:03,42.805,6.029,0.057,-0.04,-0.015,102.0,103.0,102.0,13.4,1505.2,329.8,-0.8,1.8,2471.424,13.29,0.069,125.1
2023-07-04T00:25:03,42.805,6.029,0.045,-0.016,0.0,104.0,101.0,102.0,13.3,1505.2,329.5,-0.8,1.8,2471.42,13.29,0.047,109.6
2023-07-04T00:28:03,42.805,6.029,0.037,-0.009,0.012,103.0,102.0,102.0,13.3,1505.2,343.5,-0.8,1.8,2471.42,13.29,0.038,103.7
2023-07-04T00:31:03,42.805,6.029,0.027,-0.042,-0.039,102.0,104.0,101.0,13.4,1505.2,345.6,-0.8,1.8,2471.423,13.29,0.049,147.3
2023-07-04T00:34:03,42.805,6.029,0.03,-0.036,0.015,103.0,102.0,102.0,13.3,1505.2,347.7,-0.8,1.8,2471.397,13.29,0.046,140.2
2023-07-04T00:37:03,42.805,6.029,0.021,-0.037,-0.021,105.0,104.0,101.0,13.3,1505.2,344.5,-0.8,1.8,2471.414,13.29,0.042,150.4
2023-07-04T00:40:03,42.805,6.029,0.039,-0.019,-0.019,103.0,102.0,102.0,13.3,1505.2,328.5,-0.8,1.8,2471.4,13.29,0.043,116.0
2023-07-04T00:43:03,42.805,6.029,0.038,-0.04,-0.021,102.0,103.0,102.0,13.4,1505.2,344.3,-0.8,1.8,2471.377,13.29,0.055,136.5
2023-07-04T00:46:03,42.805,6.029,0.022,-0.025,-0.034,103.0,103.0,102.0,13.3,1505.2,330.1,-0.8,1.8,2471.371,13.29,0.033,138.7
2023-07-04T00:49:03,42.805,6.029,0.045,-0.041,-0.034,103.0,103.0,102.0,13.4,1505.2,351.5,-0.7,1.8,2471.405,13.29,0.06,132.3
2023-07-04T00:52:03,42.805,6.029,0.035,-0.013,-0.038,104.0,102.0,102.0,13.4,1505.2,337.3,-0.7,1.8,2471.39,13.29,0.037,110.4
2023-07-04T00:55:03,42.805,6.029,0.035,0.003,0.002,103.0,103.0,102.0,13.3,1505.2,321.0,-0.8,1.8,2471.368,13.29,0.035,85.1
2023-07-04T00:58:03,42.805,6.029,0.026,-0.016,-0.029,103.0,102.0,102.0,13.3,1505.2,332.9,-0.8,1.8,2471.387,13.29,0.03,121.6
2023-07-04T02:04:02,42.805,6.029,0.04,-0.022,-0.033,104.0,102.0,101.0,13.3,1505.1,340.3,-0.7,1.8,2471.85,13.27,0.045,118.8
2023-07-04T02:07:03,42.805,6.029,0.047,0.011,-0.019,103.0,102.0,102.0,13.4,1505.2,327.0,-0.8,1.8,2471.764,13.28,0.048,76.8
2023-07-04T02:10:03,42.805,6.029,0.049,-0.004,0.002,103.0,102.0,103.0,13.4,1505.2,328.7,-0.8,1.8,2471.668,13.28,0.049,94.7
2023-07-04T02:13:03,42.805,6.029,0.031,-0.027,-0.039,104.0,103.0,102.0,13.3,1505.2,350.9,-0.7,1.8,2471.6,13.28,0.041,131.1
2023-07-04T02:16:03,42.805,6.029,0.046,-0.011,-0.024,104.0,103.0,101.0,13.4,1505.2,334.9,-0.7,1.8,2471.489,13.28,0.047,103.4
2023-07-04T02:19:03,42.805,6.029,0.053,-0.026,-0.029,103.0,102.0,102.0,13.3,1505.2,329.2,-0.7,1.8,2471.483,13.28,0.059,116.1
2023-07-04T02:22:03,42.805,6.029,0.03,-0.012,-0.017,103.0,104.0,102.0,13.4,1505.2,350.7,-0.7,1.8,2471.447,13.28,0.032,111.8
2023-07-04T02:25:03,42.805,6.029,0.042,-0.025,0.009,103.0,103.0,102.0,13.3,1505.2,346.7,-0.8,1.8,2471.41,13.29,0.048,120.8
2023-07-04T02:28:03,42.805,6.029,0.014,0.001,0.009,102.0,104.0,101.0,13.3,1505.2,343.3,-0.8,1.8,2471.432,13.29,0.014,85.9
2023-07-04T02:31:03,42.805,6.029,0.028,-0.024,-0.01,103.0,103.0,101.0,13.4,1505.2,354.5,-0.7,1.8,2471.42,13.29,0.036,130.6
2023-07-04T02:34:03,42.805,6.029,0.052,-0.018,-0.002,103.0,102.0,102.0,13.3,1505.2,324.1,-0.7,1.8,2471.407,13.29,0.055,109.1
2023-07-04T02:37:03,42.805,6.029,0.007,-0.024,-0.037,103.0,104.0,101.0,13.4,1505.2,339.3,-0.7,1.8,2471.366,13.29,0.025,163.7
2023-07-04T02:40:03,42.805,6.029,0.065,-0.038,0.013,103.0,103.0,102.0,13.4,1505.2,330.3,-0.7,1.8,2471.334,13.29,0.075,120.3
2023-07-04T02:43:03,42.805,6.029,0.044,-0.023,0.014,103.0,104.0,101.0,13.4,1505.2,325.8,-0.8,1.8,2471.361,13.29,0.049,117.6
2023-07-04T02:46:03,42.805,6.029,0.051,-0.038,0.001,103.0,101.0,102.0,13.4,1505.2,346.7,-0.8,1.8,2471.335,13.29,0.063,126.7
2023-07-04T02:49:03,42.805,6.029,0.049,-0.024,-0.028,103.0,103.0,101.0,13.3,1505.2,334.7,-0.8,1.8,2471.353,13.29,0.054,116.1
2023-07-04T02:52:03,42.805,6.029,0.042,-0.04,-0.038,102.0,102.0,103.0,13.4,1505.2,331.3,-0.8,1.8,2471.33,13.29,0.057,133.6
2023-07-04T02:55:03,42.805,6.029,0.031,-0.03,-0.02,104.0,103.0,102.0,13.3,1505.2,351.7,-0.8,1.8,2471.336,13.29,0.043,134.1
2023-07-04T02:58:03,42.805,6.029,0.046,-0.012,0.006,103.0,102.0,103.0,13.4,1505.2,324.9,-0.8,1.8,2471.339,13.29,0.047,104.6
2023-07-04T03:04:03,42.805,6.029,0.022,-0.006,0.001,104.0,103.0,101.0,13.4,1505.2,340.8,-0.7,1.8,2471.368,13.28,0.022,105.3
2023-07-04T03:07:03,42.805,6.029,0.036,-0.037,-0.013,103.0,102.0,101.0,13.3,1505.2,321.3,-0.8,1.8,2471.379,13.28,0.051,135.8
2023-07-04T03:10:03,42.805,6.029,0.028,-0.033,-0.023,101.0,104.0,102.0,13.4,1505.2,345.0,-0.8,1.8,2471.396,13.28,0.043,139.7
2023-07-04T03:13:03,42.805,6.029,0.044,-0.004,0.022,103.0,103.0,102.0,13.4,1505.2,330.5,-0.7,1.8,2471.365,13.28,0.044,95.2
2023-07-04T03:16:03,42.805,6.029,0.027,-0.015,0.0,103.0,102.0,102.0,13.4,1505.2,330.1,-0.7,1.8,2471.343,13.29,0.03,119.1
2023-07-04T03:19:03,42.805,6.029,0.032,-0.027,0.001,104.0,102.0,102.0,13.4,1505.2,334.6,-0.7,1.8,2471.377,13.29,0.041,130.2
2023-07-04T03:22:03,42.805,6.029,0.062,-0.023,-0.017,103.0,103.0,101.0,13.4,1505.2,332.4,-0.8,1.8,2471.336,13.29,0.066,110.3
2023-07-04T03:25:03,42.805,6.029,0.028,-0.044,-0.032,102.0,103.0,101.0,13.3,1505.2,331.8,-0.8,1.8,2471.38,13.29,0.052,147.5
2023-07-04T03:28:03,42.805,6.029,0.029,-0.019,0.002,103.0,104.0,100.0,13.4,1505.2,347.6,-0.8,1.8,2471.346,13.29,0.034,123.2
2023-07-04T03:31:03,42.805,6.029,0.024,-0.036,-0.01,103.0,102.0,101.0,13.4,1505.2,347.0,-0.7,1.8,2471.348,13.29,0.043,146.3
2023-07-04T03:34:03,42.805,6.029,0.024,-0.038,-0.02,104.0,103.0,102.0,13.4,1505.2,334.8,-0.7,1.8,2471.341,13.29,0.044,147.7
2023-07-04T03:37:03,42.805,6.029,0.025,-0.053,-0.032,102.0,103.0,102.0,13.4,1505.2,348.9,-0.7,1.8,2471.341,13.29,0.058,154.7
2023-07-04T03:40:03,42.805,6.029,0.037,-0.023,-0.01,103.0,102.0,102.0,13.3,1505.2,331.1,-0.8,1.8,2471.35,13.29,0.043,121.9
2023-07-04T03:43:03,42.805,6.029,0.036,-0.046,-0.01,103.0,101.0,102.0,13.4,1505.2,351.4,-0.8,1.8,2471.339,13.29,0.058,142.0
2023-07-04T03:46:03,42.805,6.029,0.028,-0.016,-0.025,103.0,103.0,101.0,13.3,1505.2,331.8,-0.8,1.8,2471.377,13.29,0.032,119.7
2023-07-04T03:49:03,42.805,6.029,0.041,-0.016,-0.028,103.0,103.0,101.0,13.4,1505.2,336.6,-0.8,1.8,2471.312,13.29,0.044,111.3
2023-07-04T03:52:03,42.805,6.029,0.049,-0.024,0.005,102.0,103.0,102.0,13.4,1505.2,353.4,-0.7,1.8,2471.37,13.29,0.054,116.1
2023-07-04T03:55:03,42.805,6.029,0.036,0.0,-0.011,104.0,102.0,101.0,13.4,1505.2,323.4,-0.8,1.8,2471.342,13.29,0.036,90.0
2023-07-04T03:58:03,42.805,6.029,0.034,-0.04,-0.012,103.0,102.0,101.0,13.4,1505.2,337.0,-0.7,1.8,2471.349,13.29,0.052,139.6
2023-07-04T04:04:03,42.805,6.029,0.053,-0.023,-0.037,103.0,103.0,102.0,13.4,1505.2,337.6,-0.7,1.8,2471.402,13.28,0.057,113.5
2023-07-04T04:07:03,42.805,6.029,0.037,-0.033,0.005,102.0,102.0,102.0,13.3,1505.2,350.3,-0.8,1.8,2471.396,13.28,0.049,131.7
2023-07-04T04:10:03,42.805,6.029,0.054,-0.03,-0.032,102.0,103.0,102.0,13.4,1505.2,329.8,-0.8,1.8,2471.424,13.28,0.061,119.1
2023-07-04T04:13:03,42.805,6.029,0.054,-0.041,0.01,103.0,103.0,101.0,13.3,1505.2,344.2,-0.8,1.8,2471.425,13.28,0.067,127.2
2023-07-04T04:16:03,42.805,6.029,0.053,-0.018,-0.024,102.0,102.0,101.0,13.3,1505.2,324.3,-0.7,1.8,2471.424,13.29,0.055,108.8
2023-07-04T04:19:03,42.805,6.029,0.039,-0.031,-0.026,102.0,102.0,101.0,13.3,1505.2,332.1,-0.8,1.8,2471.37,13.29,0.049,128.5
2023-07-04T04:22:03,42.805,6.029,0.077,-0.036,0.006,101.0,103.0,101.0,13.3,1505.2,340.0,-0.8,1.8,2471.385,13.29,0.084,115.1
2023-07-04T04:25:03,42.805,6.029,0.006,-0.02,-0.003,102.0,102.0,100.0,13.4,1505.2,354.4,-0.8,1.8,2471.376,13.29,0.02,163.3
2023-07-04T04:28:03,42.805,6.029,0.021,-0.016,0.0,103.0,102.0,101.0,13.4,1505.2,334.5,-0.7,1.8,2471.428,13.29,0.026,127.3
2023-07-04T04:31:03,42.805,6.029,0.025,-0.01,-0.007,102.0,102.0,100.0,13.4,1505.2,336.1,-0.8,1.8,2471.398,13.29,0.026,111.8
2023-07-04T04:34:03,42.805,6.029,0.027,-0.037,0.001,102.0,103.0,101.0,13.4,1505.2,345.7,-0.8,1.8,2471.39,13.29,0.045,143.9
2023-07-04T04:37:03,42.805,6.029,0.049,-0.028,-0.039,103.0,102.0,101.0,13.3,1505.2,337.7,-0.8,1.8,2471.351,13.29,0.056,119.7
2023-07-04T04:40:03,42.805,6.029,0.021,-0.016,-0.051,103.0,103.0,101.0,13.3,1505.2,335.1,-0.8,1.8,2471.356,13.29,0.026,127.3
2023-07-04T04:43:03,42.805,6.029,0.037,-0.031,0.001,102.0,102.0,101.0,13.4,1505.2,341.5,-0.7,1.8,2471.402,13.29,0.048,130.0
2023-07-04T04:46:03,42.805,6.029,0.021,-0.036,-0.034,103.0,102.0,101.0,13.4,1505.2,344.7,-0.8,1.8,2471.388,13.29,0.041,149.7
2023-07-04T04:49:03,42.805,6.029,0.024,-0.011,-0.02,103.0,102.0,100.0,13.4,1505.2,339.7,-0.8,1.8,2471.428,13.29,0.026,114.6
2023-07-04T04:52:03,42.805,6.029,0.009,-0.014,-0.042,101.0,103.0,101.0,13.4,1505.2,324.8,-0.8,1.8,2471.378,13.29,0.016,147.3
2023-07-04T04:55:03,42.805,6.029,0.044,-0.01,-0.015,102.0,103.0,101.0,13.4,1505.2,330.1,-0.8,1.8,2471.396,13.29,0.045,102.8
2023-07-04T04:58:03,42.805,6.029,0.031,-0.047,-0.014,103.0,101.0,101.0,13.4,1505.2,343.5,-0.8,1.8,2471.378,13.29,0.056,146.6
2023-07-04T05:04:03,42.805,6.029,0.031,-0.032,-0.017,102.0,102.0,101.0,13.3,1505.2,345.7,-0.7,1.8,2471.437,13.28,0.044,135.9
2023-07-04T05:07:03,42.805,6.029,0.032,0.002,0.007,103.0,103.0,100.0,13.3,1505.2,341.5,-0.8,1.8,2471.427,13.28,0.032,86.4
2023-07-04T05:10:03,42.805,6.029,0.049,-0.017,0.031,101.0,103.0,102.0,13.4,1505.2,334.6,-0.8,1.8,2471.439,13.28,0.051,109.1
2023-07-04T05:13:03,42.805,6.029,0.041,-0.015,0.011,104.0,102.0,101.0,13.3,1505.2,344.3,-0.7,1.8,2471.46,13.28,0.043,110.1
2023-07-04T05:16:03,42.805,6.029,0.036,-0.039,-0.006,103.0,102.0,101.0,13.4,1505.2,333.8,-0.8,1.8,2471.397,13.29,0.053,137.3
2023-07-04T05:19:03,42.805,6.029,0.038,-0.033,-0.017,101.0,103.0,102.0,13.4,1505.2,332.1,-0.7,1.8,2471.454,13.29,0.05,131.0
2023-07-04T05:22:03,42.805,6.029,0.037,-0.028,0.027,102.0,103.0,101.0,13.3,1505.2,338.8,-0.7,1.8,2471.45,13.29,0.046,127.1
2023-07-04T05:25:03,42.805,6.029,0.014,-0.033,-0.017,103.0,102.0,100.0,13.3,1505.2,346.2,-0.8,1.8,2471.421,13.29,0.035,157.0
2023-07-04T05:28:03,42.805,6.029,0.045,-0.03,0.012,101.0,103.0,101.0,13.4,1505.2,349.1,-0.8,1.8,2471.454,13.29,0.054,123.7
2023-07-04T05:31:03,42.805,6.029,0.044,-0.023,0.008,103.0,101.0,101.0,13.4,1505.2,337.8,-0.8,1.8,2471.43,13.29,0.049,117.6
2023-07-04T05:34:03,42.805,6.029,0.061,-0.024,0.026,100.0,103.0,102.0,13.4,1505.2,337.7,-0.8,1.8,2471.476,13.29,0.065,111.5
2023-07-04T05:37:03,42.805,6.029,0.032,-0.025,-0.015,102.0,102.0,101.0,13.4,1505.2,352.1,-0.8,1.8,2471.422,13.29,0.04,128.0
2023-07-04T05:40:03,42.805,6.029,0.036,-0.024,0.01,102.0,103.0,101.0,13.4,1505.2,338.5,-0.8,1.8,2471.442,13.29,0.043,123.7
2023-07-04T05:43:03,42.805,6.029,0.058,-0.031,-0.023,103.0,102.0,101.0,13.4,1505.2,333.4,-0.8,1.8,2471.454,13.29,0.065,118.1
2023-07-04T05:46:03,42.805,6.029,0.019,-0.007,-0.01,102.0,102.0,101.0,13.3,1505.2,338.9,-0.7,1.8,2471.44,13.29,0.02,110.2
2023-07-04T05:49:03,42.805,6.029,0.04,-0.034,-0.007,103.0,103.0,101.0,13.4,1505.2,336.5,-0.8,1.8,2471.467,13.29,0.052,130.4
2023-07-04T05:52:03,42.805,6.029,0.014,-0.015,0.004,102.0,102.0,101.0,13.3,1505.2,350.7,-0.7,1.8,2471.459,13.29,0.02,137.0
2023-07-04T05:55:03,42.805,6.029,0.026,-0.025,-0.028,104.0,103.0,101.0,13.3,1505.2,338.9,-0.8,1.8,2471.433,13.29,0.036,133.9
2023-07-04T05:58:03,42.805,6.029,0.021,-0.029,-0.016,102.0,102.0,101.0,13.3,1505.2,343.7,-0.8,1.8,2471.428,13.29,0.035,144.1
2023-07-04T06:04:03,42.805,6.029,0.037,-0.054,0.023,101.0,104.0,100.0,13.4,1505.2,353.2,-0.8,1.8,2471.52,13.28,0.065,145.6
2023-07-04T06:07:03,42.805,6.029,0.056,-0.013,-0.01,102.0,102.0,102.0,13.4,1505.2,320.5,-0.7,1.8,2471.469,13.28,0.057,103.1
2023-07-04T06:10:03,42.805,6.029,0.032,-0.026,-0.022,102.0,103.0,101.0,13.4,1505.2,329.8,-0.8,1.8,2471.481,13.28,0.041,129.1
2023-07-04T06:13:03,42.805,6.029,0.024,-0.028,-0.005,102.0,102.0,101.0,13.4,1505.2,343.0,-0.8,1.8,2471.482,13.28,0.036,139.4
2023-07-04T06:16:03,42.805,6.029,0.021,-0.002,-0.002,101.0,103.0,101.0,13.4,1505.2,319.7,-0.8,1.8,2471.48,13.29,0.021,95.4
2023-07-04T06:19:03,42.805,6.029,0.033,-0.021,-0.009,102.0,102.0,102.0,13.4,1505.2,328.1,-0.7,1.8,2471.485,13.29,0.039,122.5
2023-07-04T06:22:03,42.805,6.029,0.031,-0.033,-0.008,103.0,103.0,101.0,13.4,1505.2,350.1,-0.7,1.8,2471.483,13.29,0.045,136.8
2023-07-04T06:25:03,42.805,6.029,0.052,-0.013,0.013,103.0,104.0,101.0,13.3,1505.2,329.0,-0.8,1.8,2471.513,13.29,0.053,104.0
2023-07-04T06:28:03,42.805,6.029,0.034,-0.017,-0.005,102.0,103.0,101.0,13.4,1505.2,333.8,-0.8,1.8,2471.488,13.29,0.038,116.6
2023-07-04T06:31:03,42.805,6.029,0.019,-0.032,0.021,103.0,102.0,101.0,13.4,1505.2,353.1,-0.8,1.8,2471.468,13.29,0.037,149.3
2023-07-04T06:34:03,42.805,6.029,0.061,-0.018,-0.007,102.0,102.0,102.0,13.4,1505.2,326.0,-0.7,1.8,2471.441,13.29,0.063,106.4
2023-07-04T06:37:03,42.805,6.029,0.025,-0.009,-0.008,102.0,103.0,101.0,13.4,1505.2,328.5,-0.8,1.8,2471.48,13.29,0.026,109.8
2023-07-04T06:40:03,42.805,6.029,0.048,-0.009,-0.026,102.0,103.0,101.0,13.4,1505.2,319.6,-0.8,1.8,2471.477,13.29,0.048,100.6
2023-07-04T06:43:03,42.805,6.029,0.035,-0.01,0.016,102.0,102.0,100.0,13.3,1505.2,339.3,-0.8,1.8,2471.479,13.29,0.036,105.9
2023-07-04T06:46:03,42.805,6.029,0.038,-0.032,-0.026,102.0,101.0,101.0,13.4,1505.2,337.6,-0.8,1.8,2471.482,13.29,0.049,130.1
2023-07-04T06:49:03,42.805,6.029,0.031,-0.029,-0.016,103.0,102.0,101.0,13.4,1505.2,336.0,-0.8,1.8,2471.447,13.29,0.042,133.1
2023-07-04T06:52:03,42.805,6.029,0.03,-0.023,-0.044,101.0,102.0,101.0,13.3,1505.2,339.5,-0.8,1.8,2471.471,13.29,0.037,127.5
2023-07-04T06:55:03,42.805,6.029,0.026,-0.02,-0.026,102.0,101.0,101.0,13.3,1505.2,321.4,-0.7,1.8,2471.501,13.29,0.032,127.6
2023-07-04T06:58:03,42.805,6.029,0.038,-0.011,-0.008,103.0,102.0,101.0,13.4,1505.2,324.9,-0.8,1.8,2471.498,13.29,0.039,106.1
2023-07-04T07:04:03,42.805,6.029,0.043,-0.013,-0.015,102.0,102.0,101.0,13.4,1505.2,331.6,-0.8,1.8,2471.552,13.28,0.044,106.8
2023-07-04T07:07:03,42.805,6.029,0.039,-0.018,-0.014,102.0,103.0,102.0,13.4,1505.2,348.6,-0.8,1.8,2471.52,13.28,0.042,114.8
2023-07-04T07:10:03,42.805,6.029,0.031,-0.006,-0.029,102.0,104.0,100.0,13.3,1505.2,325.3,-0.8,1.8,2471.544,13.28,0.031,101.0
2023-07-04T07:13:03,42.805,6.029,0.042,-0.011,0.006,103.0,102.0,100.0,13.4,1505.2,329.5,-0.8,1.8,2471.497,13.28,0.043,104.7
2023-07-04T07:16:03,42.805,6.029,0.033,-0.02,-0.046,101.0,104.0,102.0,13.4,1505.2,323.4,-0.8,1.8,2471.54,13.29,0.038,121.2
2023-07-04T07:19:03,42.805,6.029,0.029,-0.034,-0.012,102.0,101.0,102.0,13.3,1505.2,341.1,-0.8,1.8,2471.497,13.29,0.044,139.5
2023-07-04T07:22:03,42.805,6.029,0.028,-0.004,-0.005,102.0,104.0,102.0,13.3,1505.2,348.9,-0.7,1.8,2471.517,13.29,0.028,98.1
2023-07-04T07:25:03,42.805,6.029,0.029,-0.013,-0.009,103.0,101.0,102.0,13.4,1505.2,324.7,-0.8,1.8,2471.497,13.29,0.031,114.1
2023-07-04T07:28:03,42.805,6.029,0.041,0.002,-0.004,101.0,102.0,102.0,13.3,1505.2,329.2,-0.8,1.8,2471.492,13.29,0.041,87.2
2023-07-04T07:31:03,42.805,6.029,0.059,-0.014,-0.008,102.0,102.0,101.0,13.4,1505.2,346.2,-0.8,1.8,2471.495,13.29,0.06,103.3
2023-07-04T07:34:03,42.805,6.029,0.042,-0.014,-0.014,102.0,102.0,101.0,13.3,1505.2,328.6,-0.8,1.8,2471.495,13.29,0.044,108.4
2023-07-04T07:37:03,42.805,6.029,0.063,-0.019,-0.019,102.0,103.0,101.0,13.4,1505.2,329.3,-0.7,1.8,2471.469,13.29,0.065,106.8
2023-07-04T07:40:03,42.805,6.029,0.028,-0.028,-0.03,102.0,104.0,101.0,13.4,1505.2,348.0,-0.8,1.8,2471.513,13.29,0.039,135.0
2023-07-04T07:43:03,42.805,6.029,0.044,-0.008,-0.034,102.0,103.0,101.0,13.4,1505.2,325.7,-0.8,1.8,2471.498,13.29,0.044,100.3
2023-07-04T07:46:03,42.805,6.029,0.065,-0.028,-0.024,103.0,101.0,102.0,13.4,1505.2,336.8,-0.8,1.8,2471.443,13.29,0.07,113.3
2023-07-04T07:49:03,42.805,6.029,0.049,-0.033,-0.021,102.0,102.0,101.0,13.3,1505.2,343.1,-0.8,1.8,2471.467,13.29,0.059,124.0
2023-07-04T07:52:03,42.805,6.029,0.05,-0.044,-0.064,102.0,103.0,100.0,13.3,1505.2,331.7,-0.8,1.8,2471.495,13.29,0.066,131.3
2023-07-04T07:55:03,42.805,6.029,0.026,-0.02,0.001,102.0,102.0,101.0,13.3,1505.2,345.9,-0.8,1.8,2471.456,13.29,0.032,127.6
2023-07-04T07:58:03,42.805,6.029,0.029,-0.045,-0.044,101.0,103.0,100.0,13.3,1505.2,348.6,-0.7,1.8,2471.496,13.29,0.053,147.2
2023-07-04T08:04:03,42.805,6.029,0.047,-0.032,0.003,102.0,102.0,101.0,13.3,1505.2,340.8,-0.8,1.8,2471.535,13.28,0.056,124.2
2023-07-04T08:07:03,42.805,6.029,0.038,-0.037,-0.01,102.0,103.0,101.0,13.4,1505.2,347.7,-0.8,1.8,2471.494,13.28,0.053,134.2
2023-07-04T08:10:03,42.805,6.029,0.038,-0.03,-0.002,102.0,102.0,100.0,13.4,1505.2,344.6,-0.8,1.9,2471.513,13.28,0.048,128.3
2023-07-04T08:13:03,42.805,6.029,0.032,-0.022,-0.016,102.0,102.0,100.0,13.4,1505.2,338.5,-0.8,1.8,2471.47,13.29,0.038,124.5
2023-07-04T08:16:03,42.805,6.029,0.073,-0.012,-0.002,101.0,103.0,102.0,13.3,1505.2,323.1,-0.7,1.8,2471.523,13.29,0.073,99.3
2023-07-04T08:19:03,42.805,6.029,0.041,-0.058,-0.026,101.0,102.0,101.0,13.4,1505.2,349.1,-0.8,1.8,2471.486,13.29,0.071,144.7
2023-07-04T08:22:03,42.805,6.029,0.051,-0.006,0.003,102.0,101.0,102.0,13.4,1505.2,330.5,-0.8,1.8,2471.476,13.29,0.051,96.7
2023-07-04T08:25:03,42.805,6.029,0.024,0.004,-0.007,103.0,103.0,100.0,13.4,1505.2,325.0,-0.8,1.8,2471.488,13.29,0.024,80.5
2023-07-04T08:28:03,42.805,6.029,0.048,-0.011,-0.007,102.0,102.0,101.0,13.4,1505.2,331.6,-0.8,1.8,2471.462,13.29,0.049,102.9
2023-07-04T08:31:03,42.805,6.029,0.028,0.0,-0.014,102.0,100.0,100.0,13.4,1505.2,331.7,-0.8,1.8,2471.443,13.29,0.028,90.0
2023-07-04T08:34:03,42.805,6.029,0.033,-0.015,-0.012,101.0,103.0,100.0,13.4,1505.2,343.9,-0.8,1.8,2471.475,13.29,0.036,114.4
2023-07-04T08:37:03,42.805,6.029,0.057,-0.007,0.002,102.0,102.0,101.0,13.3,1505.2,321.6,-0.7,1.8,2471.448,13.29,0.057,97.0
2023-07-04T08:40:03,42.805,6.029,0.059,-0.007,0.02,101.0,102.0,101.0,13.4,1505.2,339.7,-0.8,1.8,2471.45,13.29,0.059,96.8
2023-07-04T08:43:03,42.805,6.029,0.036,-0.023,-0.025,102.0,101.0,102.0,13.4,1505.2,323.6,-0.7,1.8,2471.467,13.29,0.042,122.6
2023-07-04T08:46:03,42.805,6.029,0.047,0.005,0.012,102.0,102.0,101.0,13.4,1505.2,320.3,-0.7,1.8,2471.469,13.29,0.047,83.9
2023-07-04T08:49:03,42.805,6.029,0.068,-0.006,0.051,102.0,102.0,101.0,13.4,1505.2,321.4,-0.7,1.8,2471.482,13.29,0.068,95.0
2023-07-04T08:52:03,42.805,6.029,0.023,-0.032,-0.049,102.0,103.0,101.0,13.3,1505.2,338.4,-0.8,1.8,2471.48,13.29,0.039,144.3
2023-07-04T08:55:03,42.805,6.029,0.048,-0.045,-0.046,102.0,103.0,101.0,13.4,1505.2,337.1,-0.7,1.8,2471.428,13.29,0.065,133.1
2023-07-04T08:58:03,42.805,6.029,0.041,-0.003,-0.002,102.0,103.0,101.0,13.3,1505.2,334.8,-0.8,1.8,2471.439,13.29,0.041,94.2
2023-07-04T09:04:03,42.805,6.029,0.053,-0.012,0.008,102.0,102.0,101.0,13.3,1505.2,331.0,-0.7,1.8,2471.506,13.28,0.054,102.8
2023-07-04T09:07:03,42.805,6.029,0.047,-0.038,0.005,102.0,102.0,102.0,13.4,1505.2,343.7,-0.8,1.8,2471.482,13.28,0.06,129.0
2023-07-04T09:10:03,42.805,6.029,0.032,-0.009,-0.011,102.0,102.0,102.0,13.4,1505.2,324.3,-0.8,1.8,2471.459,13.28,0.033,105.7
2023-07-04T09:13:03,42.805,6.029,0.078,-0.027,0.003,103.0,102.0,101.0,13.4,1505.2,328.2,-0.8,1.8,2471.46,13.28,0.082,109.1
2023-07-04T09:16:03,42.805,6.029,0.043,-0.041,0.002,103.0,104.0,101.0,13.4,1505.2,345.4,-0.8,1.8,2471.435,13.29,0.059,133.6
2023-07-04T09:19:03,42.805,6.029,0.039,-0.02,0.001,103.0,103.0,101.0,13.4,1505.2,324.1,-0.7,1.8,2471.442,13.29,0.043,117.1
2023-07-04T09:22:03,42.805,6.029,0.047,-0.025,-0.02,102.0,103.0,102.0,13.3,1505.2,329.0,-0.8,1.8,2471.434,13.29,0.053,118.0
2023-07-04T09:25:03,42.805,6.029,0.053,-0.007,-0.007,102.0,103.0,102.0,13.4,1505.2,325.3,-0.7,1.8,2471.471,13.29,0.053,97.5
2023-07-04T09:28:03,42.805,6.029,0.029,-0.045,-0.052,103.0,102.0,101.0,13.4,1505.2,336.2,-0.8,1.8,2471.457,13.29,0.053,147.2
2023-07-04T09:31:03,42.805,6.029,0.035,-0.031,-0.014,102.0,102.0,102.0,13.3,1505.2,349.9,-0.8,1.8,2471.431,13.29,0.046,131.5
2023-07-04T09:34:03,42.805,6.029,0.041,-0.042,-0.012,103.0,103.0,101.0,13.4,1505.2,346.7,-0.7,1.8,2471.431,13.29,0.058,135.7
2023-07-04T09:37:03,42.805,6.029,0.058,-0.019,-0.003,103.0,103.0,102.0,13.3,1505.2,340.4,-0.8,1.8,2471.437,13.29,0.061,108.1
2023-07-04T09:40:03,42.805,6.029,0.064,-0.016,0.014,104.0,102.0,101.0,13.3,1505.2,331.2,-0.7,1.8,2471.439,13.29,0.065,104.0
2023-07-04T09:43:03,42.805,6.029,0.045,-0.003,-0.028,104.0,104.0,100.0,13.3,1505.2,336.0,-0.8,1.8,2471.434,13.29,0.045,93.8
2023-07-04T09:46:03,42.805,6.029,0.055,-0.009,0.029,102.0,102.0,102.0,13.4,1505.2,335.0,-0.8,1.8,2471.429,13.29,0.055,99.3
2023-07-04T09:49:03,42.805,6.029,0.026,-0.006,0.007,102.0,102.0,102.0,13.4,1505.2,328.4,-0.8,1.8,2471.439,13.29,0.026,103.0
2023-07-04T09:52:03,42.805,6.029,0.029,-0.024,-0.004,102.0,103.0,101.0,13.4,1505.2,352.0,-0.7,1.8,2471.416,13.29,0.037,129.6
2023-07-04T09:55:03,42.805,6.029,0.033,-0.016,0.0,103.0,104.0,101.0,13.4,1505.2,324.9,-0.8,1.9,2471.404,13.29,0.036,115.9
2023-07-04T09:58:03,42.805,6.029,0.027,-0.009,-0.019,103.0,103.0,102.0,13.4,1505.2,332.1,-0.8,1.8,2471.428,13.29,0.028,108.4
2023-07-04T11:04:02,42.805,6.029,0.053,-0.015,-0.003,103.0,103.0,102.0,13.3,1505.1,328.4,-0.8,1.8,2471.874,13.27,0.055,105.8
2023-07-04T11:07:03,42.805,6.029,0.027,-0.012,0.023,103.0,102.0,101.0,13.4,1505.2,331.9,-0.8,1.8,2471.778,13.28,0.029,114.0
2023-07-04T11:10:03,42.805,6.029,0.038,-0.054,-0.018,103.0,103.0,101.0,13.4,1505.2,349.1,-0.8,1.8,2471.671,13.28,0.066,144.9
2023-07-04T11:13:03,42.805,6.029,0.043,0.0,-0.013,104.0,103.0,101.0,13.3,1505.2,334.7,-0.8,1.8,2471.605,13.28,0.043,90.0
2023-07-04T11:16:03,42.805,6.029,0.068,-0.026,0.004,103.0,103.0,102.0,13.4,1505.2,340.8,-0.8,1.8,2471.539,13.28,0.072,110.9
2023-07-04T11:19:03,42.805,6.029,0.059,-0.005,-0.01,103.0,102.0,101.0,13.3,1505.2,338.0,-0.8,1.8,2471.527,13.28,0.059,94.8
2023-07-04T11:22:03,42.805,6.029,0.042,-0.023,-0.034,102.0,103.0,102.0,13.4,1505.2,330.2,-0.7,1.8,2471.424,13.28,0.047,118.7
2023-07-04T11:25:03,42.805,6.029,0.05,-0.013,-0.027,103.0,101.0,101.0,13.4,1505.2,331.9,-0.8,1.8,2471.413,13.28,0.051,104.6
2023-07-04T11:28:03,42.805,6.029,0.026,-0.016,0.001,102.0,102.0,102.0,13.4,1505.2,352.0,-0.7,1.8,2471.393,13.29,0.03,121.6
2023-07-04T11:31:03,42.805,6.029,0.065,-0.019,-0.006,103.0,103.0,101.0,13.4,1505.2,331.7,-0.8,1.8,2471.388,13.29,0.067,106.3
2023-07-04T11:34:03,42.805,6.029,0.051,-0.019,-0.014,102.0,103.0,102.0,13.4,1505.2,333.4,-0.8,1.8,2471.383,13.29,0.054,110.4
2023-07-04T11:37:03,42.805,6.029,0.047,-0.018,0.012,101.0,103.0,102.0,13.4,1505.2,338.2,-0.8,1.8,2471.387,13.29,0.05,111.0
2023-07-04T11:40:03,42.805,6.029,0.051,-0.028,-0.007,103.0,102.0,102.0,13.4,1505.2,350.5,-0.8,1.8,2471.344,13.29,0.058,118.8
2023-07-04T11:43:03,42.805,6.029,0.04,-0.015,-0.021,102.0,102.0,102.0,13.4,1505.2,329.0,-0.8,1.8,2471.327,13.29,0.042,110.6
2023-07-04T11:46:03,42.805,6.029,0.041,-0.02,-0.046,103.0,101.0,102.0,13.4,1505.2,334.5,-0.8,1.8,2471.314,13.29,0.045,116.0
2023-07-04T11:49:03,42.805,6.029,0.024,-0.031,-0.014,103.0,104.0,101.0,13.4,1505.2,331.2,-0.8,1.8,2471.312,13.29,0.039,142.3
2023-07-04T11:52:03,42.805,6.029,0.041,-0.017,0.009,101.0,103.0,102.0,13.3,1505.2,343.2,-0.8,1.8,2471.321,13.29,0.044,112.5
2023-07-04T11:55:03,42.805,6.029,0.073,-0.021,-0.015,102.0,102.0,102.0,13.3,1505.2,333.4,-0.8,1.8,2471.324,13.29,0.075,106.0